STARLINK-32734, 62476

Orbit data source: Space-Track

STARLINK-32734, 62476 is a payload satellite owned by SpaceX/Seattle (US) in LEO that was launched on Tue, 31 Dec 2024 UTC via an FALCON 9 launch vehicle from the Air Force Eastern Test Range (AFETR). Payloads include a variety of satellites, spacecraft, and rockets equipped with specific instruments for various scientific and technological missions. These include communications satellites like Starlink; space stations such as the ISS; scientific satellites like the Hubble; Earth observation satellites from companies like Planet Labs, Umbra, and HawkEye 360; GPS; miniature CubeSats for education and research; and military/defense satellites.

Loading next visibility...
STARLINK-32734 details
Identifier
62476, 2024-254Q
Orbit
LEO
Last TLE update15 hours ago
Origin
Flag of USSpaceX/Seattle (US)
ManufacturerSpaceX/Seattle
MissionOperational Commercial Communications
Bus & MotorSTARLINK V2M, Unknown motor
Mass730 kg wet, ~700 kg dry
Launch date (UTC)
2024-12-31 (1 month ago)
Launch vehicle
FALCON 9
Launch site
Air Force Eastern Test Range (AFETR)
Object type
Payload
Rocket body
Debris
Shape & HBRBox + 2 Pan, 29 m
Radar Cross Section33.884 m², Large (>1 m²)

Expand to show TLE details & history

TLE from 15 hours ago
0 STARLINK-32734
1 62476U 24254Q   25035.58335648 -.00010271  00000-0 -23900-3 0  9999
2 62476  42.9998 107.9337 0001225 282.1861 306.3220 15.40693735  6034
Epoch: 2025-02-04T14:00Z
Definitive object data (Epoch: 2025-02-04T14:00:01.999Z)
Latitude-30.89098°
Longitude-17.41715°
Altitude451.924 km
Speed7.642 km/s
True Right ascension21h 50m 18s
True Declination-30° 43' 58"
Sunlit
Object was in daylight at TLE epoch
Visualization TLE readout
Latitude30.06559°
Longitude157.51173°
Altitude445.106 km
Speed7.65 km/s
Apparent Right ascension13h 12m 09s
Apparent Declination-9° 53' 11"
Sunlit
Object is in full shadow
Visualization observer readout
Local Sidereal Time06:48:25
Azimuth93.872° ESE
Elevation-10.854°
Doppler factor1
Orbital elements
Apogee altitude446.853 km
Perigee altitude445.181 km
Semi-major axis6,824.154 km
Eccentricity0.0001225
Inclination42.9998°
RAAN107.9337°
Arg. of periapsis282.1861°
True anomaly306.31069°
Mean anomaly306.322°
Eccentric anomaly306.31634°
Mean motion3.85008 °/min
BSTAR-0.000239
Orbital period93.5 mins
Loading maneuver chart data...
Loading historical data...
Loading historical data...
Loading historical data...
Loading historical data...
Loading historical data...
Loading historical data...
Loading historical data...

STARLINK-32734 Visibility forecast

Observer location: undefined°, undefined

Span
Click to sort rows by Start time (UTC) header in descending order
Start Az.
Max El. time (UTC)
Max El. Az.
Max El.
End time (UTC)
End Az.
5 mins2025-02-05 07:53:30.976Z210.06° SW2025-02-05 07:55:30.976Z168.802° S27.757°2025-02-05 07:58:30.976Z89.942° E
5 mins2025-02-05 09:31:30.976Z265.53° W2025-02-05 09:33:30.976Z300.059° NW40.727°2025-02-05 09:36:30.976Z67.914° E
5 mins2025-02-05 11:10:30.976Z298.94° NW2025-02-05 11:12:30.976Z21.754° NNE37.161°2025-02-05 11:15:30.976Z80.988° E
5 mins2025-02-05 12:48:30.976Z282.342° WNW2025-02-05 12:50:30.976Z189.54° SSW43.683°2025-02-05 12:53:30.976Z117.722° SE
|